Regional Weather Roundup
Issued by NWS

Home | Current Version | Previous Version | Text Only | Print | Product List | Glossary Off
Versions: 1 2 3 4 5 6 7 8 9 10 11 12 13 14 15 16 17 18 19 20 21 22 23 24 25 26 27 28 29 30 31 32 33 34 35 36 37 38 39 40 41 42 43 44 45 46 47 48 49 50

000
ASUS43 KLOT 250310
RWRIL

ILLINOIS REGIONAL WEATHER ROUNDUP
NATIONAL WEATHER SERVICE CHICAGO/ROMEOVILLE IL
900 PM CST WED DEC 24 2014

NOTE: "FAIR" INDICATES FEW OR NO CLOUDS BELOW 12,000 FEET WITH NO
SIGNIFICANT WEATHER AND/OR OBSTRUCTIONS TO VISIBILITY.

* THESE STATIONS ARE NOT UNDER NWS QUALITY CONTROL. THEY ALSO MAY NOT
  REPORT WEATHER SUCH AS PRECIPITATION OR FOG.

ILZ001-002-007-009-015-016-024-250400-
NORTHWEST ILLINOIS

CITY           SKY/WX    TMP DP  RH WIND       PRES   REMARKS
MOLINE         CLOUDY    36  30  79 W14       29.68S WCI  27
STERLING*      CLOUDY    36  30  80 NW12      29.65R WCI  27
SAVANNA*       CLOUDY    37  32  82 W9        29.65R WCI  30
$$

ILZ003-004-008-010-011-017-018-250400-
NORTH CENTRAL ILLINOIS

CITY           SKY/WX    TMP DP  RH WIND       PRES   REMARKS
ROCKFORD       CLOUDY    36  31  82 W12       29.61S WCI  28
FREEPORT*      CLOUDY    34  32  91 W12       29.63R WCI  26
ROCHELLE*      CLOUDY    34  32  92 W9        29.62R WCI  27
DE KALB*       CLOUDY    33  32  95 W12       29.60R WCI  24
PERU*          CLOUDY    37  34  89 W12G17    29.65S WCI  29
$$

ILZ005-006-012>014-019>023-250400-
NORTHEAST ILLINOIS

CITY           SKY/WX    TMP DP  RH WIND       PRES   REMARKS
CHICAGO-OHARE  CLOUDY    36  32  85 W15       29.56R WCI  27
CHICAGO-MIDWAY CLOUDY    38  33  82 W13G21    29.58R WCI  30
AURORA         CLOUDY    36  32  85 W18       29.60R WCI  26
LANSING*       CLOUDY    36  33  91 W12G18    29.59R WCI  27
JOLIET*        CLOUDY    35  32  89 W8G20     29.61R WCI  29
WAUKEGAN       CLOUDY    36  32  85 W8        29.54R WCI  30
DUPAGE AIRPORT LGT RAIN  35  32  88 W14       29.58R WCI  26
KANKAKEE*      CLOUDY    36  34  94 W14       29.63R WCI  27
WHEELING       CLOUDY    36  32  85 W10       29.57R WCI  28
MORRIS*        CLOUDY    36  35  95 W16       29.61R WCI  26
ROMEOVILLE*    CLOUDY    35  34  95 W15       29.60R WCI  26
NORTHERLY ISL    N/A     37  32  82 W9          N/A  WCI  30
$$

LMZ740>746-250400-
SOUTHERN LAKE MICHIGAN

STATION/POSITION SKY/WX   TEMP    WIND        PRES    VSBY  WAVE
                          AIR SEA DIR/SP/G                  HT/PER
                          (F)     (DEG/KT/KT) (MB)    (MI)  (FT/S)
WAUKEGAN HARBOR            36                   N/A
HARRISON CRIB              37     270/ 16/ 18   N/A
BURNHAM HARBOR             37     240/  6/ 14   N/A
CALUMET HARBOR             37     250/  8/ 13 1000.3R
MICHIGAN CITY              37     220/ 19/ 22   N/A
$$

ILZ025>027-034>036-040-047-049-050-058-095>099-250400-
WEST-CENTRAL ILLINOIS

CITY           SKY/WX    TMP DP  RH WIND       PRES   REMARKS
QUINCY         CLOUDY    36  29  75 NW13      29.78R WCI  27
GALESBURG*     CLOUDY    35  32  90 W14       29.71R WCI  25
MACOMB*        CLOUDY    36  31  84 W14       29.76R WCI  27
JACKSONVILLE*  CLOUDY    38  33  81 W14       29.77R WCI  30
PITTSFIELD*    CLOUDY    37  32  80 W9        29.79S WCI  31
$$

ILZ028>032-037-038-041>044-048-051>054-059>061-250400-
CENTRAL ILLINOIS

CITY           SKY/WX    TMP DP  RH WIND       PRES   REMARKS
PONTIAC        CLOUDY    37  35  90 W14       29.66R WCI  28
BLOOMINGTON    CLOUDY    36  34  92 W13       29.69R WCI  27
DECATUR        CLOUDY    37  34  89 W12       29.73R WCI  29
PEORIA         CLOUDY    38  33  82 W9        29.71R HAZE    WCI  31
LACON*         CLOUDY    37  32  84 W7        29.67S WCI  31
LINCOLN*       CLOUDY    38  34  84 W7        29.72S WCI  33
SPRINGFIELD    CLOUDY    38  33  82 W13       29.75R WCI  30
TAYLORVILLE    CLOUDY    36  34  93 W12G18    29.76R WCI  27
$$

ILZ033-039-045-046-055>057-062-063-250400-
EAST-CENTRAL ILLINOIS

CITY           SKY/WX    TMP DP  RH WIND       PRES   REMARKS
CHAMPAIGN      CLOUDY    36  33  89 W17       29.70R WCI  26
DANVILLE*      CLOUDY    35  33  91 W13G24    29.65R WCI  27
RANTOUL*       CLOUDY    37  35  94 W14       29.68R FOG     WCI  28
MATTOON        CLOUDY    36  34  92 W9        29.73R WCI  29
PARIS*         CLOUDY    37  35  94 W15       29.72R WCI  27
$$

ILZ079-100>102-250400-
SOUTHWEST ILLINOIS

CITY           SKY/WX    TMP DP  RH WIND       PRES   REMARKS
ALTON          CLOUDY    37  32  81 W12       29.81R WCI  30
BELLEVILLE     CLOUDY    38  36  93 W9        29.82R WCI  32
CAHOKIA*       CLOUDY    39  34  82 W9        29.83R WCI  33
SPARTA*        CLOUDY    37  34  90 W7        29.84S WCI  31
$$

ILZ064>066-069>071-074>076-080>082-084>086-088>090-092>094-250400-
SOUTH-CENTRAL ILLINOIS

CITY           SKY/WX    TMP DP  RH WIND       PRES   REMARKS
CARBONDALE     CLOUDY    39  33  79 W8        29.86R WCI  33
CAIRO*         CLOUDY    43  37  79 W8        29.89R
EFFINGHAM*     CLOUDY    37  33  87 SW10      29.78R FOG     WCI  30
MARION         CLOUDY    39  36  87 W5        29.85S
MT. VERNON     CLOUDY    37  32  81 SW8       29.83R WCI  31
CENTRALIA*     CLOUDY    37  33  85 W8        29.81R WCI  31
SALEM*         CLOUDY    39  36  87 W10       29.80S WCI  32
METROPOLIS*    CLOUDY    41  37  87 SW9       29.86R
$$

ILZ067-068-072-073-078-083-087-091-250400-
SOUTHEAST ILLINOIS

CITY           SKY/WX    TMP DP  RH WIND       PRES   REMARKS
LAWRENCEVILLE  CLOUDY    38  35  89 W12       29.78R WCI  30
FLORA*         MOCLDY    37  35  90 W10       29.80R WCI  30
FAIRFIELD*     CLOUDY    38  35  88 W7        29.81R WCI  33
HARRISBURG*    CLOUDY    39  36  89 W10       29.85R WCI  32
ROBINSON*      CLOUDY    37  35  92 W16       29.77R WCI  28
CARMI*         CLOUDY    41  38  90 W12       29.82R
$$

ABBREVIATIONS USED IN REMARKS
   TC - TEMPERATURE IN CELSIUS
  WCI - WIND CHILL INDEX
   HX - HEAT INDEX
  VSB - VISIBILITY
$$




USA.gov is the U.S. government's official web portal to all federal, state and local government web resources and services.